User: anonymous   Login
Location: Oshawa
(43.9000°N, 78.8670°W)
Time: 14:45:59
(UTC-04:00)
Language:

Cosmos 1408 Rocket - Orbit

View from above orbital plane
View from above orbital plane
View from above satellite
View from above satellite

Ground track
Ground track

The orbit data is extracted from the following two-line orbital elements,

1 13553U 82092B   16272.08930975  .00000167  00000-0  17074-4 0  9994
2 13553  82.5666 118.2758 0021185 186.8353 288.0819 14.84079088838166
Epoch (UTC): 28 September 2016 02:08:36
Eccentricity: 0.0021185
inclination: 82.5666°
perigee height: 601 km
apogee height: 631 km
right ascension of ascending node: 118.2758°
argument of perigee: 186.8353°
revolutions per day: 14.84079088
mean anomaly at epoch: 288.0819°
orbit number at epoch: 83816

The dashed part of the orbit path shows where the satellite is in the earth's shadow,  

DLR